Radiation Dose at Monitoring Post of Fukushima Daini Nuclear Power Station
Date,Time,MP-1(microSv/h),MP-2(microSv/h),MP-3(microSv/h),MP-4(microSv/h),MP-5(microSv/h),MP-6(microSv/h),MP-7(microSv/h),Wind Direction,Wind Velocity(m/s),Rain
2015/06/07,00:00,0.519,0.299,0.539,0.484,0.470,0.246,0.217,north,1.4,No
2015/06/07,00:10,0.515,0.299,0.540,0.481,0.467,0.245,0.217,north,1.9,No
2015/06/07,00:20,0.517,0.299,0.538,0.484,0.468,0.245,0.217,north-northeast,1.6,No
2015/06/07,00:30,0.515,0.298,0.537,0.484,0.467,0.245,0.216,north-northeast,1.0,No
2015/06/07,00:40,0.515,0.300,0.542,0.484,0.467,0.245,0.217,-,CALM,No
2015/06/07,00:50,0.519,0.297,0.537,0.483,0.469,0.245,0.216,-,CALM,No
2015/06/07,01:00,0.514,0.298,0.542,0.482,0.467,0.245,0.217,-,CALM,No
2015/06/07,01:10,0.518,0.300,0.539,0.485,0.469,0.246,0.217,-,CALM,No
2015/06/07,01:20,0.515,0.297,0.538,0.484,0.467,0.245,0.217,-,CALM,No
2015/06/07,01:30,0.517,0.300,0.542,0.484,0.467,0.245,0.217,-,CALM,No
2015/06/07,01:40,0.516,0.298,0.538,0.484,0.469,0.245,0.216,-,CALM,No
2015/06/07,01:50,0.516,0.299,0.541,0.482,0.465,0.245,0.217,-,CALM,No
2015/06/07,02:00,0.518,0.299,0.539,0.486,0.468,0.245,0.216,-,CALM,No
2015/06/07,02:10,0.514,0.297,0.539,0.483,0.468,0.245,0.216,-,CALM,No
2015/06/07,02:20,0.516,0.299,0.541,0.483,0.467,0.245,0.217,-,CALM,No
2015/06/07,02:30,0.517,0.300,0.538,0.485,0.469,0.246,0.217,southeast,0.5,No
2015/06/07,02:40,0.516,0.298,0.542,0.481,0.466,0.246,0.218,-,CALM,No
2015/06/07,02:50,0.518,0.299,0.538,0.485,0.469,0.245,0.218,south,1.1,No
2015/06/07,03:00,0.514,0.298,0.540,0.484,0.468,0.244,0.218,south-southeast,1.6,No
2015/06/07,03:10,0.517,0.299,0.541,0.483,0.468,0.246,0.218,south-southeast,1.5,No
2015/06/07,03:20,0.516,0.299,0.537,0.483,0.469,0.246,0.216,southwest,3.0,No
2015/06/07,03:30,0.517,0.299,0.541,0.481,0.467,0.245,0.218,south-southwest,2.5,No
2015/06/07,03:40,0.517,0.299,0.538,0.485,0.470,0.245,0.217,south,3.2,No
2015/06/07,03:50,0.513,0.298,0.540,0.483,0.468,0.244,0.217,south-southwest,4.1,No
2015/06/07,04:00,0.518,0.298,0.539,0.483,0.468,0.246,0.217,south-southwest,3.3,No
2015/06/07,04:10,0.515,0.299,0.536,0.484,0.467,0.245,0.218,south-southwest,3.9,No
2015/06/07,04:20,0.517,0.299,0.540,0.483,0.467,0.245,0.216,south-southwest,3.9,No
2015/06/07,04:30,0.517,0.297,0.539,0.485,0.469,0.245,0.218,south-southwest,3.7,No
2015/06/07,04:40,0.515,0.299,0.540,0.483,0.467,0.245,0.216,south-southwest,3.3,No
2015/06/07,04:50,0.516,0.298,0.538,0.482,0.466,0.246,0.216,south-southwest,3.0,No
2015/06/07,05:00,0.514,0.298,0.539,0.484,0.469,0.245,0.218,south-southwest,2.4,No
2015/06/07,05:10,0.519,0.301,0.541,0.482,0.464,0.245,0.217,southwest,1.8,No
2015/06/07,05:20,0.515,0.298,0.538,0.484,0.469,0.245,0.217,west-southwest,1.9,No
2015/06/07,05:30,0.518,0.299,0.542,0.483,0.466,0.245,0.216,west-southwest,1.3,No
2015/06/07,05:40,0.517,0.297,0.537,0.483,0.468,0.243,0.216,southwest,0.9,No
2015/06/07,05:50,0.516,0.299,0.541,0.484,0.469,0.245,0.217,southwest,1.4,No
2015/06/07,06:00,0.516,0.298,0.540,0.482,0.469,0.246,0.217,-,CALM,No
2015/06/07,06:10,0.514,0.298,0.538,0.484,0.467,0.245,0.217,southeast,0.8,No
2015/06/07,06:20,0.517,0.299,0.539,0.481,0.468,0.246,0.216,south-southwest,1.4,No
2015/06/07,06:30,0.514,0.298,0.536,0.483,0.468,0.245,0.217,south-southwest,1.6,No
2015/06/07,06:40,0.515,0.297,0.539,0.483,0.469,0.245,0.216,southwest,2.0,No
2015/06/07,06:50,0.513,0.299,0.537,0.486,0.469,0.245,0.216,south-southwest,3.2,No
2015/06/07,07:00,0.516,0.296,0.538,0.481,0.469,0.245,0.214,south-southwest,2.6,No
2015/06/07,07:10,0.514,0.299,0.537,0.483,0.467,0.245,0.217,south,1.6,No
2015/06/07,07:20,0.517,0.298,0.534,0.479,0.471,0.246,0.217,south,1.3,No
2015/06/07,07:30,0.515,0.297,0.538,0.486,0.469,0.246,0.216,south-southeast,1.6,No
2015/06/07,07:40,0.514,0.300,0.534,0.482,0.472,0.246,0.216,south-southeast,2.0,No
2015/06/07,07:50,0.515,0.300,0.533,0.479,0.465,0.244,0.218,southeast,2.5,No
2015/06/07,08:00,0.512,0.296,0.539,0.484,0.471,0.245,0.216,south-southeast,1.9,No
2015/06/07,08:10,0.516,0.296,0.536,0.481,0.468,0.244,0.215,southeast,2.3,No
2015/06/07,08:20,0.516,0.299,0.533,0.478,0.465,0.245,0.217,southeast,2.2,No
2015/06/07,08:30,0.512,0.298,0.539,0.484,0.471,0.246,0.217,south-southeast,1.9,No
2015/06/07,08:40,0.519,0.297,0.538,0.483,0.467,0.245,0.216,south-southeast,1.4,No
2015/06/07,08:50,0.516,0.301,0.534,0.480,0.466,0.245,0.216,south-southeast,1.9,No
2015/06/07,09:00,0.510,0.299,0.541,0.476,0.473,0.245,0.218,south-southeast,2.3,No
2015/06/07,09:10,0.517,0.297,0.539,0.483,0.470,0.244,0.217,south-southeast,1.6,No
2015/06/07,09:20,0.517,0.297,0.536,0.485,0.467,0.247,0.215,southeast,2.2,No
2015/06/07,09:30,0.512,0.301,0.544,0.483,0.472,0.246,0.215,southeast,2.4,No
2015/06/07,09:40,0.509,0.300,0.540,0.479,0.472,0.244,0.218,southeast,2.3,No
2015/06/07,09:50,0.517,0.297,0.541,0.481,0.468,0.245,0.218,southeast,2.4,No
2015/06/07,10:00,0.517,0.301,0.540,0.487,0.468,0.246,0.218,south-southeast,2.7,No
2015/06/07,10:10,0.515,0.300,0.538,0.485,0.472,0.246,0.216,south,2.6,No
2015/06/07,10:20,0.512,0.300,0.536,0.482,0.470,0.245,0.218,south,2.8,No
2015/06/07,10:30,0.515,0.298,0.542,0.480,0.466,0.245,0.218,south-southeast,3.3,No
2015/06/07,10:40,0.520,0.301,0.540,0.481,0.471,0.246,0.217,south,4.0,No
2015/06/07,10:50,0.517,0.301,0.535,0.489,0.474,0.245,0.217,south-southeast,3.8,No
2015/06/07,11:00,0.515,0.299,0.535,0.488,0.469,0.246,0.220,south-southeast,3.6,No
2015/06/07,11:10,0.512,0.299,0.540,0.486,0.465,0.247,0.218,south,4.4,No
2015/06/07,11:20,0.520,0.301,0.542,0.481,0.474,0.246,0.217,south,5.2,No
2015/06/07,11:30,0.519,0.299,0.538,0.486,0.474,0.245,0.219,south,5.2,No
2015/06/07,11:40,0.517,0.298,0.535,0.489,0.468,0.247,0.219,south-southeast,5.3,No
2015/06/07,11:50,0.512,0.301,0.540,0.487,0.467,0.246,0.217,south-southeast,6.0,No
2015/06/07,12:00,0.515,0.300,0.545,0.483,0.474,0.246,0.217,south-southeast,5.6,No
2015/06/07,12:10,0.520,0.297,0.543,0.483,0.474,0.246,0.219,south,5.8,No
2015/06/07,12:20,0.518,0.300,0.539,0.490,0.469,0.246,0.218,south,5.9,No
2015/06/07,12:30,0.515,0.301,0.538,0.491,0.467,0.247,0.217,south-southeast,6.9,No
2015/06/07,12:40,0.519,0.300,0.543,0.486,0.475,0.246,0.219,south-southeast,7.2,No
2015/06/07,12:50,0.521,0.299,0.544,0.483,0.475,0.248,0.220,south-southeast,6.4,No
2015/06/07,13:00,0.519,0.303,0.541,0.486,0.472,0.246,0.218,south-southeast,6.7,No
2015/06/07,13:10,0.516,0.300,0.537,0.489,0.468,0.245,0.218,south-southeast,6.9,No
2015/06/07,13:20,0.524,0.299,0.537,0.488,0.472,0.247,0.220,south,7.2,No
2015/06/07,13:30,0.519,0.299,0.545,0.484,0.475,0.247,0.219,south-southeast,6.2,No
2015/06/07,13:40,0.516,0.302,0.543,0.486,0.474,0.248,0.217,south,7.0,No
2015/06/07,13:50,0.517,0.299,0.543,0.493,0.470,0.246,0.219,south-southeast,6.4,No
2015/06/07,14:00,0.521,0.297,0.542,0.489,0.467,0.246,0.219,south-southeast,6.4,No
2015/06/07,14:10,0.519,0.299,0.539,0.486,0.475,0.246,0.220,south-southeast,7.0,No
2015/06/07,14:20,0.515,0.303,0.544,0.484,0.476,0.247,0.218,south-southeast,6.9,No
2015/06/07,14:30,0.513,0.302,0.546,0.483,0.472,0.248,0.219,south-southeast,7.0,No
2015/06/07,14:40,0.512,0.300,0.543,0.491,0.470,0.246,0.220,south-southeast,7.4,No
2015/06/07,14:50,0.520,0.300,0.542,0.489,0.470,0.246,0.219,south-southeast,7.5,No
2015/06/07,15:00,0.521,0.301,0.541,0.486,0.477,0.248,0.219,south-southeast,7.0,No
2015/06/07,15:10,0.519,0.301,0.541,0.493,0.475,0.248,0.220,south-southeast,7.9,No
2015/06/07,15:20,0.519,0.300,0.547,0.494,0.470,0.246,0.220,south-southeast,7.5,No
2015/06/07,15:30,0.526,0.298,0.546,0.490,0.468,0.247,0.218,south,7.5,No
2015/06/07,15:40,0.519,0.304,0.543,0.495,0.472,0.248,0.221,south,6.6,No
2015/06/07,15:50,0.518,0.302,0.540,0.490,0.476,0.247,0.219,south,7.2,No
2015/06/07,16:00,0.523,0.299,0.551,0.489,0.475,0.246,0.219,south,6.9,No
2015/06/07,16:10,0.518,0.303,0.548,0.493,0.472,0.247,0.220,south,7.1,No
2015/06/07,16:20,0.521,0.302,0.545,0.487,0.470,0.248,0.220,south,7.0,No
2015/06/07,16:30,0.522,0.302,0.551,0.493,0.478,0.247,0.220,south,8.2,No
2015/06/07,16:40,0.517,0.303,0.547,0.491,0.475,0.247,0.220,south,8.3,No
2015/06/07,16:50,0.524,0.301,0.551,0.491,0.471,0.249,0.220,south,7.7,No
2015/06/07,17:00,0.522,0.303,0.549,0.493,0.477,0.247,0.219,south,8.9,No
2015/06/07,17:10,0.518,0.301,0.545,0.487,0.477,0.248,0.220,south,10.2,No
2015/06/07,17:20,0.524,0.303,0.551,0.493,0.471,0.248,0.220,south,8.9,No
2015/06/07,17:30,0.517,0.302,0.544,0.490,0.480,0.248,0.219,south,10.1,No
2015/06/07,17:40,0.522,0.301,0.550,0.492,0.474,0.248,0.221,south,8.9,No
2015/06/07,17:50,0.522,0.302,0.548,0.493,0.471,0.248,0.221,south,8.0,No
2015/06/07,18:00,0.517,0.301,0.543,0.489,0.478,0.248,0.221,south,7.7,No
2015/06/07,18:10,0.524,0.302,0.549,0.495,0.473,0.247,0.219,south,6.7,No
2015/06/07,18:20,0.519,0.301,0.544,0.488,0.477,0.248,0.221,south,7.7,No
2015/06/07,18:30,0.521,0.304,0.551,0.493,0.475,0.250,0.220,south,6.7,No
2015/06/07,18:40,0.523,0.302,0.545,0.489,0.475,0.248,0.220,south,7.7,No
2015/06/07,18:50,0.520,0.303,0.546,0.492,0.477,0.249,0.219,south,7.6,No
2015/06/07,19:00,0.524,0.301,0.547,0.491,0.474,0.248,0.221,south,7.1,No
2015/06/07,19:10,0.519,0.303,0.545,0.491,0.476,0.248,0.221,south,6.9,No
2015/06/07,19:20,0.523,0.302,0.550,0.492,0.473,0.247,0.221,south,7.9,No
2015/06/07,19:30,0.519,0.301,0.545,0.491,0.479,0.248,0.221,south-southwest,7.5,No
2015/06/07,19:40,0.522,0.300,0.548,0.494,0.472,0.247,0.221,south-southwest,8.1,No
2015/06/07,19:50,0.521,0.303,0.545,0.489,0.477,0.249,0.221,south-southwest,7.7,No
2015/06/07,20:00,0.521,0.302,0.550,0.494,0.474,0.248,0.221,south-southwest,8.4,No
2015/06/07,20:10,0.520,0.303,0.546,0.489,0.477,0.249,0.219,south-southwest,8.1,No
2015/06/07,20:20,0.522,0.301,0.550,0.494,0.471,0.248,0.221,south-southwest,8.8,No
2015/06/07,20:30,0.522,0.303,0.546,0.488,0.477,0.249,0.220,south-southwest,9.2,No
2015/06/07,20:40,0.520,0.302,0.550,0.494,0.471,0.247,0.220,south-southwest,10.1,No
2015/06/07,20:50,0.522,0.303,0.548,0.490,0.478,0.249,0.220,south-southwest,9.8,No
2015/06/07,21:00,0.519,0.302,0.547,0.495,0.472,0.248,0.220,south-southwest,9.5,No
2015/06/07,21:10,0.523,0.304,0.548,0.488,0.475,0.248,0.222,south-southwest,8.9,No
2015/06/07,21:20,0.519,0.301,0.544,0.494,0.472,0.248,0.220,south-southwest,9.3,No
2015/06/07,21:30,0.522,0.303,0.550,0.490,0.479,0.249,0.220,south-southwest,9.2,No
2015/06/07,21:40,0.518,0.301,0.546,0.492,0.471,0.247,0.220,south-southwest,8.4,No
2015/06/07,21:50,0.523,0.304,0.550,0.492,0.476,0.248,0.221,south-southwest,8.4,No
2015/06/07,22:00,0.518,0.302,0.545,0.492,0.471,0.248,0.221,south-southwest,8.6,No
2015/06/07,22:10,0.525,0.303,0.549,0.492,0.476,0.248,0.221,south-southwest,8.5,No
2015/06/07,22:20,0.519,0.301,0.546,0.491,0.473,0.249,0.218,south-southwest,8.7,No
2015/06/07,22:30,0.524,0.302,0.548,0.492,0.478,0.248,0.221,south-southwest,9.0,No
2015/06/07,22:40,0.518,0.301,0.550,0.489,0.473,0.247,0.221,south-southwest,8.1,No
2015/06/07,22:50,0.523,0.303,0.546,0.492,0.475,0.249,0.221,south-southwest,8.3,No
2015/06/07,23:00,0.521,0.302,0.549,0.490,0.475,0.248,0.220,south-southwest,8.4,No
2015/06/07,23:10,0.521,0.303,0.544,0.494,0.474,0.248,0.220,south-southwest,8.6,No
2015/06/07,23:20,0.522,0.300,0.551,0.488,0.474,0.250,0.221,south-southwest,8.2,No
2015/06/07,23:30,0.519,0.303,0.544,0.493,0.474,0.248,0.221,south-southwest,7.1,No
2015/06/07,23:40,0.523,0.301,0.550,0.492,0.475,0.249,0.220,south,7.5,No
2015/06/07,23:50,0.520,0.303,0.546,0.492,0.473,0.247,0.222,south-southwest,7.5,No
